Tracking 19283 objects as of 18-Nov-2018
HD Live streaming from Space Station
objects crossing your sky now

ITF-2

Track ITF-2 now!
10-day predictions
ITF-2 is classified as:


NORAD ID: 41932
Int'l Code: 1998-067KU
Perigee: 292.2 km
Apogee: 300.3 km
Inclination: 51.6 °
Period: 90.3 minutes
Semi major axis: 6667 km
RCS: Unknown
Launch date: November 20, 1998
Source: Japan (JPN)
Launch site: TYURATAM MISSILE AND SPACE COMPLEX (TTMTR)

Uplink (MHz):
Downlink (MHz): 437.525
Beacon (MHz): 437.525
Mode: 1200bps FM CW
Call sign: JQ1ZTK
Status: Active

aabbcc
Your satellite tracking list
Your tracking list is empty




NASA's NSSDC Master Catalog

Two Line Element Set (TLE):
1 41932U 98067KU  18321.82304095  .00130953  17848-4  34106-3 0  9995
2 41932  51.6252 261.0876 0006075 105.8219 254.3459 15.94723478105105
Source of the keplerian elements: AMSAT